Date,Time,Wetness (Wet Dry or Ice),Wind Speed (m/s),Temperature (C),Humidity (%),Pressure (mb),Radiation (W/m^2)
2020-06-24,05:05:00,DRY,1.80,13.95,7.0,776.00,1.9
2020-06-24,05:10:00,DRY,1.67,13.93,7.0,776.00,1.5
2020-06-24,05:15:00,DRY,1.85,13.70,7.0,776.00,0.1
2020-06-24,05:20:00,DRY,2.00,13.83,7.0,776.00,1.2
2020-06-24,05:25:00,DRY,1.60,13.75,7.0,776.00,0.0
2020-06-24,05:30:00,DRY,1.30,13.93,6.3,776.00,2.0
2020-06-24,05:35:00,DRY,1.30,14.10,6.5,776.00,0.5
2020-06-24,05:40:00,DRY,1.37,14.23,6.0,776.00,2.0
2020-06-24,05:45:00,DRY,1.25,14.25,6.0,776.00,1.4
2020-06-24,05:50:00,DRY,1.23,14.00,6.0,776.00,0.8
2020-06-24,05:55:00,DRY,1.05,14.00,6.5,776.00,3.1
2020-06-24,06:00:00,DRY,1.73,13.83,7.0,776.00,2.0
2020-06-24,06:05:00,DRY,1.75,13.80,7.0,776.00,3.1
2020-06-24,06:10:00,DRY,1.83,13.70,7.0,776.00,5.5
2020-06-24,06:15:00,DRY,1.15,13.90,7.0,776.00,7.7
2020-06-24,06:20:00,DRY,1.00,14.07,6.0,776.00,13.3
2020-06-24,06:25:00,DRY,1.10,14.10,7.0,776.00,36.6
2020-06-24,06:30:00,DRY,0.93,14.30,6.3,776.00,53.9
2020-06-24,06:35:00,DRY,0.70,14.75,6.0,776.00,47.0
2020-06-24,06:40:00,DRY,0.93,15.00,6.3,776.00,55.4
2020-06-24,06:45:00,DRY,0.75,15.05,7.0,776.00,124.0
2020-06-24,06:50:00,DRY,1.27,14.97,7.3,776.00,143.7
2020-06-24,06:55:00,DRY,1.60,14.85,6.5,776.00,162.8
2020-06-24,07:00:00,DRY,1.93,14.80,7.7,776.00,183.9
2020-06-24,07:05:00,DRY,1.95,14.85,8.0,776.00,204.8
2020-06-24,07:10:00,DRY,1.90,14.90,7.7,776.00,227.4
2020-06-24,07:15:00,DRY,1.95,14.95,7.5,776.00,248.4
2020-06-24,07:20:00,DRY,1.87,15.13,9.0,776.00,271.0
2020-06-24,07:25:00,DRY,1.80,15.20,9.0,776.00,292.6
2020-06-24,07:30:00,DRY,1.87,15.20,7.7,776.00,313.7
2020-06-24,07:35:00,DRY,1.95,15.35,8.0,776.00,339.4
2020-06-24,07:40:00,DRY,2.40,15.40,8.3,776.00,349.0
2020-06-24,07:45:00,DRY,2.30,15.30,9.5,776.00,344.8
2020-06-24,07:50:00,DRY,1.77,15.53,9.0,776.00,399.9
2020-06-24,07:55:00,DRY,1.75,15.70,9.5,776.00,415.7
2020-06-24,08:00:00,DRY,1.83,15.83,8.7,776.00,435.0
2020-06-24,08:05:00,DRY,2.15,15.80,8.0,776.00,471.8
2020-06-24,08:10:00,DRY,2.07,16.27,9.7,776.00,493.8
2020-06-24,08:15:00,DRY,2.50,16.05,9.0,776.00,514.5
2020-06-24,08:20:00,DRY,2.03,16.07,9.3,776.00,461.1
2020-06-24,08:25:00,DRY,0.85,16.05,9.5,776.00,557.5
2020-06-24,08:30:00,DRY,1.83,16.03,9.0,776.00,577.8
2020-06-24,08:35:00,DRY,2.10,16.40,9.5,776.00,598.8
2020-06-24,08:40:00,DRY,2.10,16.37,10.0,776.00,621.3
2020-06-24,08:45:00,DRY,0.80,16.55,11.0,776.00,643.8
2020-06-24,08:50:00,DRY,0.83,17.03,10.7,776.00,654.1
2020-06-24,08:55:00,DRY,1.75,17.25,10.0,776.00,689.8
2020-06-24,09:00:00,DRY,1.80,16.83,10.7,776.00,713.3
2020-06-24,09:05:00,DRY,2.05,16.75,12.0,776.00,681.9
2020-06-24,09:10:00,DRY,1.27,16.83,11.7,776.00,746.2
2020-06-24,09:15:00,DRY,1.50,17.50,9.5,776.00,768.5
2020-06-24,09:20:00,DRY,1.30,17.23,9.7,776.00,761.7
2020-06-24,09:25:00,DRY,1.15,16.90,11.5,776.00,802.6
2020-06-24,09:30:00,DRY,1.87,16.37,16.3,776.00,817.9
2020-06-24,09:35:00,DRY,1.90,16.15,19.5,776.00,827.5
2020-06-24,09:40:00,DRY,2.00,16.67,14.7,776.00,859.4
2020-06-24,09:45:00,DRY,3.10,16.90,16.5,776.00,831.1
2020-06-24,09:50:00,DRY,2.00,16.53,19.0,776.00,895.9
2020-06-24,09:55:00,DRY,2.15,16.85,18.0,776.00,799.5
2020-06-24,10:00:00,DRY,2.63,16.93,20.0,776.00,917.2
2020-06-24,10:05:00,DRY,2.20,17.30,15.5,776.00,947.0
2020-06-24,10:10:00,DRY,1.87,16.73,13.0,776.00,933.2
2020-06-24,10:15:00,DRY,2.35,16.70,15.0,776.00,970.9
2020-06-24,10:20:00,DRY,2.33,16.63,18.3,776.00,980.3
2020-06-24,10:25:00,DRY,2.80,17.35,19.5,776.00,976.3
2020-06-24,10:30:00,DRY,2.83,17.77,17.7,776.00,1010.5
2020-06-24,10:35:00,DRY,2.10,16.95,14.0,776.00,1031.9
2020-06-24,10:40:00,DRY,1.67,16.93,21.3,776.00,989.6
2020-06-24,10:45:00,DRY,0.95,17.05,23.5,776.00,1045.2
2020-06-24,10:50:00,DRY,2.33,17.33,22.7,776.00,1060.0
2020-06-24,10:55:00,DRY,2.45,17.25,23.5,776.00,1072.0
2020-06-24,11:00:00,DRY,2.33,17.10,25.0,776.00,1070.7
2020-06-24,11:05:00,DRY,1.95,17.70,25.0,776.00,1090.8
2020-06-24,11:10:00,DRY,2.30,17.80,22.3,776.33,1099.8
2020-06-24,11:15:00,DRY,3.10,18.10,21.0,776.00,1114.8
2020-06-24,11:20:00,DRY,1.67,17.50,21.3,776.33,1124.1
2020-06-24,11:25:00,DRY,2.75,17.75,16.5,776.50,1133.7
2020-06-24,11:30:00,DRY,2.67,17.70,12.3,777.00,1142.9
2020-06-24,11:35:00,DRY,2.30,17.15,14.0,777.00,1150.9
2020-06-24,11:40:00,DRY,2.50,17.53,20.0,777.00,1156.1
2020-06-24,11:45:00,DRY,2.00,18.40,21.0,777.00,1162.4
2020-06-24,11:50:00,DRY,2.93,18.37,20.3,777.00,1170.4
2020-06-24,11:55:00,DRY,2.05,17.50,22.5,777.00,1175.9
2020-06-24,12:00:00,DRY,1.77,18.00,22.0,777.00,1183.3
2020-06-24,12:05:00,DRY,1.25,17.55,24.0,777.00,1186.8
2020-06-24,12:10:00,DRY,2.20,17.93,22.7,777.00,1195.0
2020-06-24,12:15:00,DRY,1.25,17.85,22.5,777.00,1201.6
2020-06-24,12:20:00,DRY,2.03,17.87,23.0,777.00,1202.9
2020-06-24,12:25:00,DRY,1.50,17.40,21.5,777.00,1207.3
2020-06-24,12:30:00,DRY,2.20,17.53,24.7,777.00,1217.8
2020-06-24,12:35:00,DRY,2.05,17.85,24.5,777.00,1178.2
2020-06-24,12:40:00,DRY,2.13,17.40,22.7,777.00,1171.2
2020-06-24,12:45:00,DRY,2.40,17.60,22.5,777.00,1201.4
2020-06-24,12:50:00,DRY,2.47,18.00,23.0,777.00,1220.0
2020-06-24,12:55:00,DRY,2.85,18.10,21.0,777.00,1218.0
2020-06-24,13:00:00,DRY,1.83,17.63,19.7,777.00,1218.6
2020-06-24,13:05:00,DRY,3.40,18.15,20.5,777.00,1219.0
2020-06-24,13:10:00,DRY,2.77,17.73,21.0,777.00,1216.1
2020-06-24,13:15:00,DRY,3.70,17.50,23.0,777.00,1220.2
2020-06-24,13:20:00,DRY,2.10,17.60,21.3,777.00,1220.2
2020-06-24,13:25:00,DRY,3.30,17.90,22.0,777.00,1221.6
2020-06-24,13:30:00,DRY,2.80,18.30,19.0,777.00,1219.8
2020-06-24,13:35:00,DRY,3.40,17.30,24.0,777.00,1221.9
2020-06-24,13:40:00,DRY,3.07,18.10,25.0,777.00,1216.8
2020-06-24,13:45:00,DRY,2.25,17.65,24.0,777.00,1216.9
2020-06-24,13:50:00,DRY,1.53,18.00,21.3,777.00,1214.2
2020-06-24,13:55:00,DRY,2.25,18.60,22.5,777.00,1212.7
2020-06-24,14:00:00,DRY,1.77,17.67,23.0,777.00,1209.0
2020-06-24,14:05:00,DRY,2.55,17.30,25.0,777.00,1205.0
2020-06-24,14:10:00,DRY,2.87,17.77,25.7,777.00,1199.7
2020-06-24,14:15:00,DRY,3.55,18.25,26.0,777.00,1195.7
2020-06-24,14:20:00,DRY,3.13,17.57,24.3,777.00,1189.6
2020-06-24,14:25:00,DRY,3.45,17.20,24.0,777.00,1183.8
2020-06-24,14:30:00,DRY,3.10,17.20,19.3,777.00,1169.9
2020-06-24,14:35:00,DRY,3.10,16.70,16.5,777.00,1174.2
2020-06-24,14:40:00,DRY,2.10,16.80,16.7,777.00,1160.3
2020-06-24,14:45:00,DRY,2.75,17.60,19.5,777.00,1161.2
2020-06-24,14:50:00,DRY,2.43,17.53,16.3,777.00,1145.7
2020-06-24,14:55:00,DRY,3.15,17.40,23.5,777.00,1134.0
2020-06-24,15:00:00,DRY,2.77,17.20,21.3,776.33,1138.2
2020-06-24,15:05:00,DRY,2.55,17.35,14.0,776.50,1127.3
2020-06-24,15:10:00,DRY,3.00,17.23,21.3,776.00,1117.6
2020-06-24,15:15:00,DRY,2.55,16.95,18.0,776.50,1103.0
2020-06-24,15:20:00,DRY,2.30,16.67,16.3,776.33,1088.1
2020-06-24,15:25:00,DRY,3.65,16.60,21.5,776.00,1077.2
2020-06-24,15:30:00,DRY,2.77,17.50,19.7,776.00,1064.9
2020-06-24,15:35:00,DRY,3.00,17.10,16.0,776.00,1052.8
2020-06-24,15:40:00,DRY,3.13,17.63,20.3,776.00,1039.6
2020-06-24,15:45:00,DRY,2.60,17.15,20.5,776.00,1026.2
2020-06-24,15:50:00,DRY,2.23,17.13,18.3,776.00,1011.4
2020-06-24,15:55:00,DRY,2.85,17.55,17.5,776.00,996.7
2020-06-24,16:00:00,DRY,2.37,17.07,21.7,776.00,981.9
2020-06-24,16:05:00,DRY,2.20,16.90,18.0,776.00,966.5
2020-06-24,16:10:00,DRY,2.23,16.90,18.0,776.00,953.6
2020-06-24,16:15:00,DRY,2.00,16.50,21.5,776.00,936.7
2020-06-24,16:20:00,DRY,2.23,16.90,17.7,776.00,920.3
2020-06-24,16:25:00,DRY,1.80,16.65,16.0,776.00,903.5
2020-06-24,16:30:00,DRY,2.73,17.10,17.3,776.00,887.0
2020-06-24,16:35:00,DRY,2.85,17.20,17.0,776.00,870.5
2020-06-24,16:40:00,DRY,2.27,17.00,11.7,776.00,853.1
2020-06-24,16:45:00,DRY,2.10,17.20,15.0,776.00,836.1
2020-06-24,16:50:00,DRY,2.53,17.33,9.7,776.00,817.3
2020-06-24,16:55:00,DRY,3.15,17.35,11.5,776.00,798.2
2020-06-24,17:00:00,DRY,2.90,17.23,16.3,776.00,778.7
2020-06-24,17:05:00,DRY,3.35,16.85,17.5,776.00,759.8
2020-06-24,17:10:00,DRY,2.77,16.40,15.0,776.00,742.5
2020-06-24,17:15:00,DRY,2.75,16.85,16.5,776.00,723.3
2020-06-24,17:20:00,DRY,2.93,16.93,12.3,776.00,702.8
2020-06-24,17:25:00,DRY,3.35,16.75,15.5,776.00,683.5
2020-06-24,17:30:00,DRY,3.13,16.83,18.7,776.00,662.8
2020-06-24,17:35:00,DRY,2.55,16.70,17.5,776.00,642.9
2020-06-24,17:40:00,DRY,3.30,16.53,14.3,776.00,621.3
2020-06-24,17:45:00,DRY,3.20,16.35,13.5,776.00,601.6
2020-06-24,17:50:00,DRY,3.90,16.33,13.0,776.00,578.7
2020-06-24,17:55:00,DRY,4.00,16.15,12.0,776.00,558.4
2020-06-24,18:00:00,DRY,3.40,15.97,20.7,776.00,536.4
2020-06-24,18:05:00,DRY,2.45,15.80,16.5,776.00,514.2
2020-06-24,18:10:00,DRY,3.50,15.45,19.5,776.00,488.6
2020-06-24,18:15:00,DRY,3.65,15.85,19.0,776.00,471.5
2020-06-24,18:20:00,DRY,3.83,15.37,18.0,776.00,449.4
2020-06-24,18:25:00,DRY,4.45,15.40,16.5,776.00,426.5
2020-06-24,18:30:00,DRY,4.43,15.47,17.3,776.00,405.0
2020-06-24,18:35:00,DRY,4.35,15.00,18.5,776.00,383.2
2020-06-24,18:40:00,DRY,4.70,14.63,16.7,776.00,360.2
2020-06-24,18:45:00,DRY,5.05,14.60,13.5,776.00,338.8
2020-06-24,18:50:00,DRY,4.63,14.43,16.3,776.00,317.2
2020-06-24,18:55:00,DRY,3.75,14.70,16.0,776.00,295.1
2020-06-24,19:00:00,DRY,4.37,14.27,15.3,776.00,273.0
2020-06-24,19:05:00,DRY,5.35,14.10,17.0,776.00,251.8
2020-06-24,19:10:00,DRY,5.83,14.07,16.0,776.00,230.9
2020-06-24,19:15:00,DRY,5.95,13.85,14.5,776.00,210.9
2020-06-24,19:20:00,DRY,5.20,13.83,15.0,776.00,190.6
2020-06-24,19:25:00,DRY,4.90,13.85,13.5,776.00,171.6
2020-06-24,19:30:00,DRY,6.63,13.90,13.7,776.00,153.1
2020-06-24,19:35:00,DRY,5.65,13.60,13.0,776.00,130.8
2020-06-24,19:40:00,DRY,5.15,13.85,11.5,776.00,104.2
2020-06-24,19:45:00,DRY,5.20,13.65,13.0,776.00,80.2
2020-06-24,19:50:00,DRY,5.37,13.40,14.0,776.33,59.8
2020-06-24,19:55:00,DRY,4.95,13.00,14.0,776.00,42.4
2020-06-24,20:00:00,DRY,5.00,12.83,15.0,776.33,28.1
2020-06-24,20:05:00,DRY,4.50,12.60,14.5,777.00,18.0
2020-06-24,20:10:00,DRY,4.73,12.47,14.0,776.67,12.3
2020-06-24,20:15:00,DRY,4.55,12.55,14.5,777.00,8.6
2020-06-24,20:20:00,DRY,4.83,12.60,13.7,777.00,4.8
2020-06-24,20:25:00,DRY,4.35,12.30,15.0,777.00,3.2
2020-06-24,20:30:00,DRY,4.67,12.33,14.7,777.00,2.4
2020-06-24,20:35:00,DRY,4.60,12.35,15.0,777.00,1.8
2020-06-24,20:40:00,DRY,5.53,12.47,14.0,777.00,1.4
2020-06-24,20:45:00,DRY,5.10,12.55,14.0,777.00,1.8
2020-06-24,20:50:00,DRY,5.60,12.30,15.0,777.00,1.4
2020-06-24,20:55:00,DRY,4.40,12.25,15.0,777.00,1.0
2020-06-24,21:00:00,DRY,5.87,12.13,15.0,777.00,2.0
2020-06-24,21:05:00,DRY,5.85,11.90,15.0,777.00,1.0
2020-06-24,21:10:00,DRY,4.27,11.80,16.0,777.00,1.3
2020-06-24,21:15:00,DRY,4.20,11.75,15.5,777.00,0.8
2020-06-24,21:20:00,DRY,4.53,11.73,16.0,777.00,1.2
2020-06-24,21:25:00,DRY,5.25,11.90,15.5,777.00,0.8
2020-06-24,21:30:00,DRY,4.43,11.97,15.3,777.00,1.2
2020-06-24,21:35:00,DRY,4.35,12.05,15.0,777.00,1.2
2020-06-24,21:40:00,DRY,3.97,12.03,15.0,777.00,1.5
2020-06-24,21:45:00,DRY,4.40,12.00,15.0,777.00,1.3
2020-06-24,21:50:00,DRY,4.37,11.77,15.3,777.00,1.4
2020-06-24,21:55:00,DRY,3.85,11.70,15.5,777.00,0.9
2020-06-24,22:00:00,DRY,5.63,11.63,15.0,777.00,1.2
2020-06-24,22:05:00,DRY,6.15,11.55,15.5,777.00,1.3
2020-06-24,22:10:00,DRY,4.77,11.67,15.7,777.00,1.2
2020-06-24,22:15:00,DRY,5.45,11.65,15.0,777.00,1.5
2020-06-24,22:20:00,DRY,4.00,11.53,15.0,777.00,1.4
2020-06-24,22:25:00,DRY,5.20,11.40,15.0,777.00,1.2
2020-06-24,22:30:00,DRY,5.47,11.40,15.7,777.00,1.8
2020-06-24,22:35:00,DRY,5.70,11.50,16.0,777.00,1.6
2020-06-24,22:40:00,DRY,6.03,11.50,16.3,777.00,1.3
2020-06-24,22:45:00,DRY,5.80,11.45,16.0,777.00,0.9
2020-06-24,22:50:00,DRY,6.03,11.63,15.3,777.00,1.2
2020-06-24,22:55:00,DRY,5.20,11.90,13.5,777.00,1.2
2020-06-24,23:00:00,DRY,5.17,12.07,13.7,777.00,1.4
2020-06-24,23:05:00,DRY,5.80,12.05,13.0,777.00,1.5
2020-06-24,23:10:00,DRY,5.57,12.10,13.0,777.00,1.4
2020-06-24,23:15:00,DRY,4.15,12.15,14.0,777.00,1.3
2020-06-24,23:20:00,DRY,4.60,12.23,12.3,777.00,1.3
2020-06-24,23:25:00,DRY,6.15,12.20,12.5,777.00,1.3
2020-06-24,23:30:00,DRY,4.73,12.23,13.0,777.00,0.7
2020-06-24,23:35:00,DRY,4.60,12.05,12.5,777.00,1.3
2020-06-24,23:40:00,DRY,5.13,12.03,13.3,777.00,1.6
2020-06-24,23:45:00,DRY,4.50,12.05,13.0,777.00,1.4
2020-06-24,23:50:00,DRY,5.73,12.10,13.3,777.00,1.3
2020-06-24,23:55:00,DRY,3.55,12.10,12.0,777.00,1.2
2020-06-25,00:00:00,DRY,4.70,11.97,13.0,777.00,1.5
2020-06-25,00:05:00,DRY,4.25,11.95,13.0,777.00,2.6
2020-06-25,00:10:00,DRY,4.73,12.00,13.0,777.00,1.2
2020-06-25,00:15:00,DRY,4.90,11.90,13.5,777.00,1.4
2020-06-25,00:20:00,DRY,5.93,11.97,13.7,777.00,1.3
2020-06-25,00:25:00,DRY,6.20,12.05,12.5,777.00,1.4
2020-06-25,00:30:00,DRY,5.63,12.03,13.0,777.00,1.4
2020-06-25,00:35:00,DRY,5.40,12.00,13.0,777.00,2.8
2020-06-25,00:40:00,DRY,5.27,11.93,13.0,777.00,1.6
2020-06-25,00:45:00,DRY,4.55,11.90,13.0,777.00,2.2
2020-06-25,00:50:00,DRY,6.10,12.00,12.7,777.00,1.4
2020-06-25,00:55:00,DRY,6.30,11.90,13.5,777.00,1.4
2020-06-25,01:00:00,DRY,6.77,11.93,12.3,777.00,1.2
2020-06-25,01:05:00,DRY,5.20,12.00,12.0,777.00,1.6
2020-06-25,01:10:00,DRY,5.30,12.03,12.3,777.00,1.2
2020-06-25,01:15:00,DRY,5.45,12.00,11.5,777.00,1.2
2020-06-25,01:20:00,DRY,5.07,11.90,12.0,777.00,1.3
2020-06-25,01:25:00,DRY,5.70,11.90,12.5,777.00,1.1
2020-06-25,01:30:00,DRY,5.43,11.93,12.3,777.00,1.1
2020-06-25,01:35:00,DRY,5.00,11.90,13.0,777.00,1.4
2020-06-25,01:40:00,DRY,4.87,11.83,13.7,777.00,1.1
2020-06-25,01:45:00,DRY,4.90,11.95,13.0,777.00,1.3
2020-06-25,01:50:00,DRY,4.97,12.03,13.3,777.00,2.0
2020-06-25,01:55:00,DRY,5.00,11.95,13.0,777.00,1.4
2020-06-25,02:00:00,DRY,5.50,11.90,13.3,776.67,1.5
2020-06-25,02:05:00,DRY,4.95,11.95,13.5,777.00,1.2
2020-06-25,02:10:00,DRY,5.40,11.80,14.0,776.00,1.3
2020-06-25,02:15:00,DRY,5.95,11.90,14.0,776.00,1.7
2020-06-25,02:20:00,DRY,4.60,11.93,13.7,776.00,1.3
2020-06-25,02:25:00,DRY,4.35,11.75,14.0,776.00,1.5
2020-06-25,02:30:00,DRY,4.97,11.73,14.3,776.00,1.2
2020-06-25,02:35:00,DRY,5.50,11.75,14.0,776.00,1.4
2020-06-25,02:40:00,DRY,4.77,11.80,14.0,776.00,1.4
2020-06-25,02:45:00,DRY,4.05,11.75,14.5,776.00,1.3
2020-06-25,02:50:00,DRY,5.00,11.80,13.7,776.00,1.3
2020-06-25,02:55:00,DRY,4.10,12.10,13.0,776.00,1.1
2020-06-25,03:00:00,DRY,3.93,11.97,13.3,776.00,2.3
2020-06-25,03:05:00,DRY,4.95,11.80,14.0,776.00,0.7
2020-06-25,03:10:00,DRY,4.97,12.00,14.0,776.00,0.6
2020-06-25,03:15:00,DRY,4.35,11.85,14.0,776.00,1.2
2020-06-25,03:20:00,DRY,4.60,11.77,14.3,776.00,1.2
2020-06-25,03:25:00,DRY,4.55,11.65,14.0,776.00,0.6
2020-06-25,03:30:00,DRY,4.87,11.67,14.3,776.00,1.1
2020-06-25,03:35:00,DRY,5.45,11.65,15.0,776.00,1.4
2020-06-25,03:40:00,DRY,5.37,11.67,14.3,776.00,1.3
2020-06-25,03:45:00,DRY,4.80,11.70,14.0,776.00,1.2
2020-06-25,03:50:00,DRY,5.33,11.40,15.0,776.00,1.1
2020-06-25,03:55:00,DRY,4.65,11.55,14.0,776.00,1.2
2020-06-25,04:00:00,DRY,5.00,11.63,14.0,776.00,1.3
2020-06-25,04:05:00,DRY,4.25,11.60,14.0,776.00,1.1
2020-06-25,04:10:00,DRY,5.60,11.47,15.0,776.00,1.3
2020-06-25,04:15:00,DRY,5.15,11.60,14.0,776.00,1.1
2020-06-25,04:20:00,DRY,5.77,11.60,14.0,776.00,1.2
2020-06-25,04:25:00,DRY,6.00,11.70,14.0,776.00,1.2
2020-06-25,04:30:00,DRY,5.77,11.80,14.0,776.00,1.5
2020-06-25,04:35:00,DRY,5.80,11.70,14.0,776.00,1.2
2020-06-25,04:40:00,DRY,5.33,11.60,14.0,776.00,2.3
2020-06-25,04:45:00,DRY,3.80,11.55,14.0,776.00,1.1
2020-06-25,04:50:00,DRY,4.50,11.37,15.3,776.00,1.1
2020-06-25,04:55:00,DRY,5.65,11.35,15.0,776.00,1.6
2020-06-25,05:00:00,DRY,5.27,11.13,16.0,776.00,1.2
2020-06-25,05:05:00,DRY,5.95,11.05,16.0,776.00,1.3
2020-06-25,05:10:00,DRY,6.20,10.97,16.0,776.00,1.3
2020-06-25,05:15:00,DRY,5.90,10.90,16.0,776.00,1.1
2020-06-25,05:20:00,DRY,4.93,10.93,16.0,776.00,1.2
2020-06-25,05:25:00,DRY,4.70,11.10,15.5,776.00,1.1
2020-06-25,05:30:00,DRY,5.03,11.20,15.3,776.00,1.3
2020-06-25,05:35:00,DRY,4.40,10.95,16.0,776.00,1.3
2020-06-25,05:40:00,DRY,5.20,10.90,16.0,776.00,1.4
2020-06-25,05:45:00,DRY,6.15,11.10,16.0,776.00,2.2
2020-06-25,05:50:00,DRY,5.10,11.27,15.3,776.00,1.2
2020-06-25,05:55:00,DRY,4.65,11.25,15.0,776.00,1.8
2020-06-25,06:00:00,DRY,5.43,11.37,15.0,776.00,2.4
2020-06-25,06:05:00,DRY,4.70,11.65,14.0,776.00,3.4
2020-06-25,06:10:00,DRY,4.80,11.83,13.3,776.00,4.6
2020-06-25,06:15:00,DRY,4.60,11.90,13.0,776.00,6.5
2020-06-25,06:20:00,DRY,3.57,12.17,13.0,776.00,11.2
2020-06-25,06:25:00,DRY,4.25,12.15,13.0,776.00,16.2
2020-06-25,06:30:00,DRY,5.17,11.93,13.0,776.00,29.9
2020-06-25,06:35:00,DRY,3.85,12.35,12.5,776.00,36.7
2020-06-25,06:40:00,DRY,3.83,12.43,13.0,776.00,50.5
2020-06-25,06:45:00,DRY,4.85,12.25,13.0,776.00,96.7
2020-06-25,06:50:00,DRY,5.20,12.30,14.0,776.00,139.9
2020-06-25,06:55:00,DRY,4.45,12.40,14.0,776.00,160.8
2020-06-25,07:00:00,DRY,4.37,12.53,14.0,776.00,181.1
2020-06-25,07:05:00,DRY,3.10,12.65,14.0,776.00,189.5
2020-06-25,07:10:00,DRY,3.27,12.87,13.7,776.00,222.3
2020-06-25,07:15:00,DRY,2.90,13.45,12.0,776.00,244.2
2020-06-25,07:20:00,DRY,2.40,13.47,14.0,776.00,266.1
2020-06-25,07:25:00,DRY,2.25,13.80,13.5,776.00,287.9
2020-06-25,07:30:00,DRY,1.93,14.10,12.3,776.00,310.5
2020-06-25,07:35:00,DRY,1.75,14.15,12.0,776.00,332.4
2020-06-25,07:40:00,DRY,1.87,14.50,11.7,776.00,354.8
2020-06-25,07:45:00,DRY,1.35,14.50,12.5,776.00,376.9
2020-06-25,07:50:00,DRY,1.80,14.43,13.0,776.00,398.9
2020-06-25,07:55:00,DRY,2.80,14.20,14.0,776.00,420.4
2020-06-25,08:00:00,DRY,3.13,13.87,13.3,776.00,443.1
2020-06-25,08:05:00,DRY,2.20,13.75,14.0,776.00,464.9
2020-06-25,08:10:00,DRY,2.30,14.03,14.0,776.00,487.1
2020-06-25,08:15:00,DRY,1.70,14.00,13.5,776.00,507.1
2020-06-25,08:20:00,DRY,2.70,14.13,14.0,776.00,529.0
2020-06-25,08:25:00,DRY,3.55,14.10,13.5,776.00,551.0
2020-06-25,08:30:00,DRY,3.07,13.93,13.3,776.00,571.9
2020-06-25,08:35:00,DRY,4.15,14.05,13.0,776.00,592.5
2020-06-25,08:40:00,DRY,2.27,14.07,14.3,776.00,613.5
2020-06-25,08:45:00,DRY,2.40,14.20,13.5,776.00,632.8
2020-06-25,08:50:00,DRY,2.00,13.93,14.0,776.67,653.8
2020-06-25,08:55:00,DRY,1.80,14.30,14.5,776.00,675.5
2020-06-25,09:00:00,DRY,2.53,14.10,14.0,776.33,694.4
2020-06-25,09:05:00,DRY,3.45,13.80,14.5,777.00,713.9
2020-06-25,09:10:00,DRY,2.43,14.13,14.7,776.67,732.6
2020-06-25,09:15:00,DRY,3.60,14.55,14.0,777.00,752.0
2020-06-25,09:20:00,DRY,2.73,14.57,14.3,776.33,771.6
2020-06-25,09:25:00,DRY,2.20,14.60,13.0,777.00,790.5
2020-06-25,09:30:00,DRY,2.33,14.83,15.3,777.00,808.8
2020-06-25,09:35:00,DRY,1.25,14.60,13.5,777.00,826.0
2020-06-25,09:40:00,DRY,1.57,14.93,14.7,777.00,843.3
2020-06-25,09:45:00,DRY,1.70,14.95,15.0,777.00,861.5
2020-06-25,09:50:00,DRY,2.97,15.23,15.7,777.00,879.1
2020-06-25,09:55:00,DRY,1.25,15.30,16.5,777.00,895.5
2020-06-25,10:00:00,DRY,2.67,15.47,15.7,777.00,909.6
2020-06-25,10:05:00,DRY,2.65,15.95,14.0,777.00,926.5
2020-06-25,10:10:00,DRY,2.03,15.67,15.7,777.00,941.6
2020-06-25,10:15:00,DRY,2.95,16.05,18.0,777.00,957.1
2020-06-25,10:20:00,DRY,2.13,16.23,18.7,777.00,973.1
2020-06-25,10:25:00,DRY,2.55,16.40,17.0,777.00,986.0
2020-06-25,10:30:00,DRY,1.70,16.17,19.3,777.00,1001.0
2020-06-25,10:35:00,DRY,1.35,15.80,19.5,777.00,1013.0
2020-06-25,10:40:00,DRY,2.17,16.33,22.0,777.00,1026.1
2020-06-25,10:45:00,DRY,2.20,16.60,22.0,777.00,1039.7
2020-06-25,10:50:00,DRY,2.30,16.27,21.3,777.00,1052.1
2020-06-25,10:55:00,DRY,2.55,16.35,23.0,777.00,1062.8
2020-06-25,11:00:00,DRY,1.40,15.80,23.7,777.00,1074.6
2020-06-25,11:05:00,DRY,2.25,16.45,28.0,777.00,1084.0
2020-06-25,11:10:00,DRY,2.30,15.83,31.0,777.00,1096.6
2020-06-25,11:15:00,DRY,1.15,15.80,30.5,777.00,1106.1
2020-06-25,11:20:00,DRY,1.87,15.50,31.0,777.00,1115.7
2020-06-25,11:25:00,DRY,2.30,15.70,30.5,777.00,1125.5
2020-06-25,11:30:00,DRY,2.70,15.67,30.7,777.00,1134.1
2020-06-25,11:35:00,DRY,2.05,15.55,31.0,777.00,1143.3
2020-06-25,11:40:00,DRY,1.77,15.37,30.0,777.00,1149.1
2020-06-25,11:45:00,DRY,2.00,15.35,31.5,777.00,1157.8
2020-06-25,11:50:00,DRY,2.07,15.50,31.0,777.00,1163.0
2020-06-25,11:55:00,DRY,2.45,16.15,29.5,777.00,1169.2
2020-06-25,12:00:00,DRY,2.40,15.70,29.7,777.00,1175.9
2020-06-25,12:05:00,DRY,1.95,15.15,32.5,777.00,1183.1
2020-06-25,12:10:00,DRY,2.47,16.13,30.7,777.00,1187.7
2020-06-25,12:15:00,DRY,2.90,15.50,34.0,777.00,1190.0
2020-06-25,12:20:00,DRY,2.87,16.23,31.3,777.00,1195.2
2020-06-25,12:25:00,DRY,2.10,15.50,31.0,777.00,1199.2
2020-06-25,12:30:00,DRY,2.33,16.00,30.3,777.00,1201.0
2020-06-25,12:35:00,DRY,3.10,15.65,26.5,777.00,1204.0
2020-06-25,12:40:00,DRY,2.60,15.50,31.3,777.00,1205.8
2020-06-25,12:45:00,DRY,1.40,15.50,25.5,777.00,1209.2
2020-06-25,12:50:00,DRY,3.30,15.80,34.7,777.00,1210.0
2020-06-25,12:55:00,DRY,2.70,15.55,32.5,777.00,1211.3
2020-06-25,13:00:00,DRY,2.73,15.73,34.7,777.00,1213.1
2020-06-25,13:05:00,DRY,3.40,16.25,28.0,777.00,1214.2
2020-06-25,13:10:00,DRY,3.30,15.93,30.3,777.00,1214.6
2020-06-25,13:15:00,DRY,2.00,15.80,27.5,777.00,1212.2
2020-06-25,13:20:00,DRY,2.47,16.10,28.7,777.00,1215.4
2020-06-25,13:25:00,DRY,2.60,15.55,28.5,777.00,1211.4
2020-06-25,13:30:00,DRY,3.30,15.30,32.0,777.00,1215.0
2020-06-25,13:35:00,DRY,2.90,15.60,34.0,777.00,1213.4
2020-06-25,13:40:00,DRY,2.80,15.67,31.7,777.00,1210.5
2020-06-25,13:45:00,DRY,2.15,15.20,28.5,777.00,1209.6
2020-06-25,13:50:00,DRY,2.50,15.50,27.3,777.00,1205.0
2020-06-25,13:55:00,DRY,2.75,15.35,31.5,777.00,1203.1
2020-06-25,14:00:00,DRY,2.43,15.37,32.3,777.00,1199.2
2020-06-25,14:05:00,DRY,2.50,15.50,31.5,777.00,1193.9
2020-06-25,14:10:00,DRY,3.77,16.03,28.3,777.00,1191.6
2020-06-25,14:15:00,DRY,2.70,15.55,28.0,777.00,1186.6
2020-06-25,14:20:00,DRY,2.80,15.70,26.3,777.00,1181.3
2020-06-25,14:25:00,DRY,2.75,15.95,25.5,777.00,1175.8
2020-06-25,14:30:00,DRY,2.93,15.40,27.3,777.00,1170.7
2020-06-25,14:35:00,DRY,3.30,15.65,29.0,777.00,1162.7
2020-06-25,14:40:00,DRY,2.90,15.73,25.0,777.00,1155.1
2020-06-25,14:45:00,DRY,3.50,16.05,30.0,777.00,1146.3
2020-06-25,14:50:00,DRY,3.15,15.65,32.0,777.00,1140.2
2020-06-25,14:55:00,DRY,3.30,15.40,32.0,777.00,1132.5
2020-06-25,15:00:00,DRY,4.40,15.43,31.7,777.00,1121.2
2020-06-25,15:05:00,DRY,4.35,15.00,31.5,777.00,1110.3
2020-06-25,15:10:00,DRY,3.33,15.40,31.3,777.00,1100.3
2020-06-25,15:15:00,DRY,4.45,15.30,30.5,777.00,1089.3
2020-06-25,15:20:00,DRY,4.50,15.27,30.0,777.00,1079.7
2020-06-25,15:25:00,DRY,2.60,15.30,28.5,777.00,1067.0
2020-06-25,15:30:00,DRY,2.20,15.30,27.7,777.00,1057.5
2020-06-25,15:35:00,DRY,3.05,15.70,23.0,777.00,1042.4
2020-06-25,15:40:00,DRY,2.60,15.17,30.0,777.00,1027.4
2020-06-25,15:45:00,DRY,3.00,15.20,26.5,777.00,1014.5
2020-06-25,15:50:00,DRY,4.17,14.93,23.3,777.00,1001.6
2020-06-25,15:55:00,DRY,3.95,14.60,28.0,777.00,986.3
2020-06-25,16:00:00,DRY,3.30,14.47,28.7,777.00,970.4
2020-06-25,16:05:00,DRY,4.80,14.20,28.0,777.00,956.0
2020-06-25,16:10:00,DRY,3.43,14.27,29.7,777.00,940.1
2020-06-25,16:15:00,DRY,2.25,14.65,28.0,777.00,925.5
2020-06-25,16:20:00,DRY,4.13,14.37,27.7,777.00,910.3
2020-06-25,16:25:00,DRY,3.95,13.85,31.5,777.00,893.2
2020-06-25,16:30:00,DRY,3.03,14.07,27.3,777.00,871.8
2020-06-25,16:35:00,DRY,3.00,14.55,26.0,777.00,857.7
2020-06-25,16:40:00,DRY,4.57,14.50,27.7,777.00,843.5
2020-06-25,16:45:00,DRY,3.75,14.30,30.0,777.00,824.5
2020-06-25,16:50:00,DRY,4.90,14.07,28.7,776.67,808.2
2020-06-25,16:55:00,DRY,3.95,13.75,24.0,776.50,791.2
2020-06-25,17:00:00,DRY,4.33,14.13,25.7,777.00,760.5
2020-06-25,17:05:00,DRY,3.50,14.10,27.0,777.00,701.5
2020-06-25,17:10:00,DRY,3.30,14.45,28.5,776.50,731.9
2020-06-25,17:15:00,DRY,4.00,14.00,24.0,776.50,727.8
2020-06-25,17:20:00,DRY,4.53,13.70,25.0,776.67,706.9
2020-06-25,17:25:00,DRY,4.15,13.80,23.5,777.00,684.1
2020-06-25,17:30:00,DRY,4.10,13.77,22.3,777.00,659.9
2020-06-25,17:35:00,DRY,3.45,13.95,19.0,776.50,637.8
2020-06-25,17:40:00,DRY,3.00,14.13,21.0,776.67,617.2
2020-06-25,17:45:00,DRY,4.35,13.85,19.5,777.00,585.6
2020-06-25,17:50:00,DRY,3.60,13.90,19.0,777.00,562.0
2020-06-25,17:55:00,DRY,3.70,13.90,18.0,777.00,552.7
2020-06-25,18:00:00,DRY,3.10,13.93,21.0,777.00,532.3
2020-06-25,18:05:00,DRY,4.30,14.20,18.5,777.00,509.4
2020-06-25,18:10:00,DRY,3.43,13.83,19.0,777.00,487.7
2020-06-25,18:15:00,DRY,4.80,13.90,16.5,777.00,466.2
2020-06-25,18:20:00,DRY,4.17,13.53,18.3,777.00,445.2
2020-06-25,18:25:00,DRY,3.65,13.50,19.5,777.00,422.6
2020-06-25,18:30:00,DRY,4.40,13.87,16.0,777.00,401.4
2020-06-25,18:35:00,DRY,4.65,13.80,16.5,777.00,378.8
2020-06-25,18:40:00,DRY,3.83,13.87,16.3,777.00,357.4
2020-06-25,18:45:00,DRY,2.20,13.85,17.0,777.00,335.1
2020-06-25,18:50:00,DRY,3.33,14.17,14.3,777.00,313.1